"Pseudo-MPEC" for P21vWjo

Created 2022 Sep 11 14:22:24 UT using Find_Orb

Click here for an explanation of pseudo-MPECs

 
 Astrometry: 
     P21vWjo* C2022 08 08UOQ4GHd!Co,J7Y:y[2#9).bMJUGj4s@6ABTve[kK_L=s@pTRtH[\F52
     P21vWjo  C2022 08 080/,eVQT3JtIE$v[9A`RmW%4N4f\^FejeuA?.F92E/6AD)c+50;xjF52
     P21vWjo  C2022 08 08OeleAP1,uv[pjp/VsF7=OTde?Ycc.(VM#`^c5[E,Qi:Ergkd_traF52
     P21vWjo ^C2022 08 08.59461400 56 40.690-13 53 30.37   ~88N7 21.06GVNEOCP568
     P21vWjo ^C2022 08 08.59523400 56 41.319-13 53 30.47   ~88N7 21.13GVNEOCP568
     P21vWjo ^C2022 08 08.59580400 56 41.915-13 53 30.20   ~88N7 21.36GVNEOCP568
     P21vWjo  C2022 08 0887ZrUAstrometryxZ7..;nlX*'#j2FF'E?nj]SUoWm))H[c_iK8YF52
     P21vWjo  C2022 08 08By6ff72G\+redacted;;click'hIEDrkhereU_97IxtSlf:FVfmmF52
     P21vWjo  C2022 08 093*x(eg+0e#gVYLopOGPJToptc+D\R7o65x!)fgaforSwtYFjcnt3F52
     P21vWjo  C2022 08 09C]Q-T\Q64h,K#^LZA8!(EyYEFBmA/Jl!KFexplanation7V7KxCvF52

Station data:
(568) Mauna Kea  (N19.826114 W155.472200)  US/Hawaii.  Observers R.
   Wainscoat, R. Weryk. 3.6-m Canada-France-Hawaii Telescope + CCD2.24-m
   University of Hawaii reflector.
(F52) Pan-STARRS 2, Haleakala  (N20.707382 W156.255910)  US/Hawaii.
   Observers J. Bulger, T. Dukes, T. Lowe, A. Schultz, M. Willman. Measurers
   K. Chambers, S. Chastel, T. de Boer, L. Denneau, J. Fairlamb, H.
   Flewelling, M. Huber, C.-C. Lin, E. Magnier, Y. Ramanjooloo, R. Wainscoat,
   R. Weryk. 1.8-m Ritchey-Chrétien + CCD.

Orbital elements:  P21vWjo
   Perihelion 2022 Sep 26.62153 +/- 0.917 TT = 14:55:00 (JD 2459849.12153)
Epoch 2022 Aug  9.0 TT = JDT 2459800.5   Earth MOID: 0.0420   Ma: 0.0163
M 338.08232892 +/- 2.5              (J2000 ecliptic)          AutoNEOCP
n   0.45078120 +/- 0.0602           Peri.  256.50356 +/- 4.4
a   1.68458210 +/- 0.15             Node   124.14443 +/- 0.26
e   0.4706379 +/- 0.0646            Incl.    5.77190 +/- 0.47
P   2.19/798.60d           H 24.2   G  0.15   U 10.9
q 0.89175387 +/- 0.0295    Q 2.47741033 +/- 0.33
From 10 observations 2022 Aug. 8-9 (26.5 hr); mean residual 0".17
Residuals in arcseconds: 
220808 F52  .25-  .05+    220808 568  .10-  .13-    220809 F52  .08-  .05+    
220808 F52  .55+  .07+    220808 568  .00   .06+    220809 F52  .08+  .04-    
220808 F52  .36-  .10-    220808 F52  .02-  .02+    
220808 568  .08+  .06+    220808 F52  .12+  .04-    

Ephemerides (geocentric):
Date (UTC) HH   RA             Dec           delta  r     elong  mag " sig PA
---- --------  ------------   ------------  ------ ------ -----  --- --------
2022 09 11 14  07 23 22.822   +01 51 32.04  .22082 .91116  58.5 24.9 187'  76
2022 09 11 15  07 23 31.896   +01 52 01.95  .22109 .91105  58.5 24.9 187'  76
2022 09 11 16  07 23 40.958   +01 52 31.79  .22136 .91095  58.5 24.9 187'  76
2022 09 11 17  07 23 50.008   +01 53 01.57  .22163 .91084  58.5 24.9 187'  76
2022 09 11 18  07 23 59.045   +01 53 31.28  .22191 .91074  58.5 24.9 187'  76
2022 09 11 19  07 24 08.069   +01 54 00.93  .22218 .91063  58.5 24.9 187'  76
2022 09 11 20  07 24 17.081   +01 54 30.51  .22245 .91053  58.5 24.9 187'  76
2022 09 11 21  07 24 26.080   +01 55 00.02  .22272 .91043  58.5 24.9 187'  76
2022 09 11 22  07 24 35.068   +01 55 29.47  .22299 .91032  58.5 24.9 187'  76
2022 09 11 23  07 24 44.042   +01 55 58.86  .22327 .91022  58.5 24.9 187'  76
2022 09 12 00  07 24 53.005   +01 56 28.18  .22354 .91012  58.5 24.9 187'  76
2022 09 12 01  07 25 01.955   +01 56 57.44  .22381 .91001  58.5 24.9 187'  76
2022 09 12 02  07 25 10.894   +01 57 26.63  .22408 .90991  58.5 24.9 187'  76
2022 09 12 03  07 25 19.820   +01 57 55.75  .22436 .90981  58.5 24.9 188'  76
2022 09 12 04  07 25 28.734   +01 58 24.82  .22463 .90970  58.5 24.9 188'  76
2022 09 12 05  07 25 37.637   +01 58 53.82  .22490 .90960  58.5 24.9 188'  76
2022 09 12 06  07 25 46.527   +01 59 22.75  .22517 .90950  58.5 24.9 188'  76
2022 09 12 07  07 25 55.405   +01 59 51.62  .22545 .90940  58.5 24.9 188'  76
2022 09 12 08  07 26 04.272   +02 00 20.43  .22572 .90930  58.5 24.9 188'  77
2022 09 12 09  07 26 13.127   +02 00 49.17  .22599 .90920  58.5 24.9 188'  77
2022 09 12 10  07 26 21.970   +02 01 17.86  .22626 .90910  58.5 24.9 188'  77
2022 09 12 11  07 26 30.802   +02 01 46.47  .22654 .90900  58.5 24.9 188'  77
2022 09 12 12  07 26 39.621   +02 02 15.03  .22681 .90890  58.5 24.9 188'  77
2022 09 12 13  07 26 48.430   +02 02 43.52  .22708 .90880  58.5 24.9 188'  77
2022 09 12 14  07 26 57.227   +02 03 11.95  .22735 .90870  58.5 24.9 188'  77
2022 09 12 15  07 27 06.012   +02 03 40.32  .22763 .90860  58.5 24.9 188'  77
2022 09 12 16  07 27 14.786   +02 04 08.62  .22790 .90850  58.5 24.9 188'  77
2022 09 12 17  07 27 23.548   +02 04 36.86  .22817 .90840  58.5 24.9 188'  77
2022 09 12 18  07 27 32.300   +02 05 05.04  .22845 .90830  58.5 24.9 188'  77
2022 09 12 19  07 27 41.040   +02 05 33.16  .22872 .90821  58.5 24.9 188'  77
2022 09 12 20  07 27 49.768   +02 06 01.22  .22899 .90811  58.5 24.9 188'  77
2022 09 12 21  07 27 58.486   +02 06 29.21  .22927 .90801  58.5 24.9 188'  77
2022 09 12 22  07 28 07.193   +02 06 57.15  .22954 .90791  58.5 25.0 188'  77
2022 09 12 23  07 28 15.888   +02 07 25.02  .22981 .90782  58.5 25.0 188'  77
2022 09 13 00  07 28 24.572   +02 07 52.83  .23008 .90772  58.5 25.0 188'  77
2022 09 13 01  07 28 33.246   +02 08 20.58  .23036 .90762  58.5 25.0 188'  77
2022 09 13 02  07 28 41.908   +02 08 48.27  .23063 .90753  58.5 25.0 188'  77
2022 09 13 03  07 28 50.560   +02 09 15.90  .23090 .90743  58.5 25.0 188'  77
2022 09 13 04  07 28 59.200   +02 09 43.47  .23118 .90734  58.5 25.0 188'  77
2022 09 13 05  07 29 07.830   +02 10 10.97  .23145 .90724  58.5 25.0 188'  77
2022 09 13 06  07 29 16.450   +02 10 38.42  .23172 .90715  58.5 25.0 188'  77
2022 09 13 07  07 29 25.058   +02 11 05.81  .23200 .90705  58.5 25.0 188'  77
2022 09 13 08  07 29 33.656   +02 11 33.13  .23227 .90696  58.6 25.0 188'  77
2022 09 13 09  07 29 42.243   +02 12 00.40  .23254 .90686  58.6 25.0 188'  77
2022 09 13 10  07 29 50.820   +02 12 27.61  .23282 .90677  58.6 25.0 188'  77
2022 09 13 11  07 29 59.386   +02 12 54.75  .23309 .90668  58.6 25.0 188'  77
2022 09 13 12  07 30 07.941   +02 13 21.84  .23336 .90658  58.6 25.0 188'  77
2022 09 13 13  07 30 16.487   +02 13 48.87  .23364 .90649  58.6 25.0 188'  77